[[{"header":{"parameterUnit":"m.s-1","parameterCategory":1,"la1":30.2992,"la2":30.254,"lo1":-89.0895,"lo2":-89.0443,"dy":0.0025,"dx":0.0025,"nx":19,"ny":19,"refTime":"2026-03-21T09:00:00:Z","depth":0,"parameterNumber":2,"parameterNumberName":"U-component_of_WINDS"},"data":[0,0,0,4.5053,4.5057,4.5247,4.5248,4.5501,4.5504,0,0,0,0,0,0,0,0,0,0,0,4.5003,4.5005,4.5053,4.5058,4.5247,4.5248,4.5501,4.5504,0,0,0,0,0,0,0,0,0,0,0,4.5003,4.5005,4.5007,4.5058,4.5247,4.5248,4.55,4.5353,0,0,0,0,0,0,0,0,0,0,4.5167,4.5128,4.5004,4.5007,4.5059,4.5247,4.5248,4.5346,4.5362,4.542,0,4.5473,0,4.5492,4.5521,4.5522,0,0,0,4.5053,4.5115,4.5159,4.5008,4.5061,4.5246,4.516,4.5355,4.5374,4.5442,4.5476,4.5485,4.5496,4.5523,4.5524,4.587,4.5871,0,0,4.5042,4.5042,4.5147,4.5172,4.5143,4.5154,4.5166,4.5366,4.5404,4.5477,4.5491,4.5501,4.5525,4.5527,4.5868,4.587,0,0,0,4.5015,4.5034,4.5074,4.5162,4.5195,4.516,4.5173,4.5395,4.5408,4.5494,4.5504,4.5526,4.5529,4.5866,4.5869,4.5958,0,0,0,4.5009,4.5019,4.507,4.5071,4.5191,4.5297,4.5198,4.5394,4.5417,4.5502,4.5526,4.5532,4.5864,4.5867,4.5951,4.6,0,0,0,4.4989,4.5016,4.5046,4.5071,4.5152,4.5294,4.5319,4.5399,4.5423,4.5522,4.5533,4.5863,4.5867,4.5945,4.599,4.609,0,0,0,4.4968,4.5124,4.5047,4.5226,4.5151,4.5348,4.5317,4.5464,4.556,4.5528,4.5864,4.5868,4.5943,4.5984,4.6083,4.6173,4.621,0,0,4.5165,4.5148,4.5253,4.5189,4.54,4.5319,4.5542,4.5632,4.5643,4.5793,4.5802,4.5953,4.599,4.6088,4.6421,4.645,0,0,0,4.5315,4.539,4.5446,4.5536,4.5607,4.5671,4.5726,4.5759,4.5886,4.572,4.6016,4.6038,4.6096,4.6139,4.6164,4.6213,4.5888,4.5888,4.5887,4.5594,4.5597,4.577,4.5796,4.5884,4.5937,4.6009,4.6062,4.6042,4.6111,4.6156,4.6357,4.6407,4.6426,4.6477,4.6204,4.6204,4.6205,4.6205,4.5882,4.5989,4.5955,4.6111,4.6113,4.6244,4.6301,4.6281,4.6403,4.6324,4.6376,4.6288,4.6459,4.6503,4.6212,4.6211,4.621,4.6209,4.6209,4.6065,4.6116,4.6152,4.6281,4.638,4.6401,4.6518,4.6517,4.6517,4.6567,4.6613,4.6612,4.6609,4.6589,4.659,4.6591,4.6591,4.6592,4.6592,4.624,4.6277,4.6376,4.6462,4.6519,4.6593,4.6646,4.6702,4.6763,4.6752,4.6753,4.6724,4.6475,4.6411,4.6603,4.6601,4.66,4.6599,4.6598,4.6531,4.6464,4.6617,4.6673,4.6773,4.687,4.6866,4.6978,4.7024,4.7082,4.7042,4.6858,4.6841,4.6821,4.6769,4.7041,4.7041,4.7041,4.7041,4.6684,4.6675,4.6829,4.6919,4.7007,4.7017,4.7189,4.7231,4.7264,4.7292,4.7253,4.7183,4.7163,4.7158,4.7131,4.7082,4.7428,4.7428,4.7429,4.6862,4.6861,4.7008,4.7038,4.7115,4.7181,4.7341,4.7445,4.7469,4.7444,4.7314,4.7298,4.7185,4.7149,4.7122,4.7079,4.6989,0,0]},{"header":{"parameterUnit":"m.s-1","parameterCategory":1,"la1":30.2992,"la2":30.254,"lo1":-89.0895,"lo2":-89.0443,"dy":0.0025,"dx":0.0025,"nx":19,"ny":19,"refTime":"2026-03-21T09:00:00:Z","depth":0,"parameterNumber":3,"parameterNumberName":"V-component_of_WINDS"},"data":[0,0,0,1.9741,1.9742,1.9753,1.9753,1.978,1.978,0,0,0,0,0,0,0,0,0,0,0,1.9745,1.9745,1.9741,1.9742,1.9753,1.9753,1.978,1.978,0,0,0,0,0,0,0,0,0,0,0,1.9745,1.9745,1.9746,1.9742,1.9753,1.9753,1.978,1.9767,0,0,0,0,0,0,0,0,0,0,1.9753,1.9764,1.9745,1.9746,1.9742,1.9753,1.9753,1.9766,1.9768,1.9779,0,1.9792,0,1.9787,1.9783,1.9783,0,0,0,1.9736,1.9763,1.9759,1.9746,1.9742,1.9753,1.9747,1.9767,1.9769,1.9782,1.9792,1.9793,1.9787,1.9783,1.9783,1.9869,1.987,0,0,1.9736,1.9751,1.9758,1.9761,1.976,1.9746,1.9747,1.9768,1.978,1.9792,1.9793,1.9787,1.9783,1.9783,1.9868,1.9869,0,0,0,1.9737,1.9751,1.9747,1.976,1.9761,1.9747,1.9748,1.9779,1.9777,1.9794,1.9788,1.9783,1.9784,1.9868,1.9869,1.9916,0,0,0,1.9737,1.9752,1.9747,1.9756,1.9761,1.9771,1.9759,1.9775,1.9777,1.9788,1.9783,1.9784,1.9867,1.9868,1.9913,1.9936,0,0,0,1.9742,1.9752,1.9757,1.9757,1.9763,1.977,1.9768,1.9775,1.9774,1.9783,1.9784,1.9867,1.9868,1.9911,1.9932,1.9964,0,0,0,1.9752,1.9799,1.9758,1.9808,1.9763,1.9799,1.9768,1.9794,1.9808,1.9784,1.9867,1.9869,1.991,1.993,1.9961,1.9993,2.0008,0,0,1.982,1.9808,1.9836,1.9799,1.9847,1.9796,1.985,1.9848,1.9835,1.9858,1.986,1.9914,1.9932,1.9963,2.0084,2.0096,0,0,0,1.9863,1.9884,1.9893,1.9906,1.9905,1.9906,1.9893,1.9892,1.9911,1.985,1.9933,1.9943,1.9961,1.9976,1.9986,2.0,1.9876,1.9876,1.9876,1.9983,1.9963,2.0008,1.9989,2.0002,1.9988,1.9996,1.9992,1.9968,1.9988,1.9996,2.0072,2.0089,2.0097,2.0112,2.001,2.001,2.0011,2.0011,2.0082,2.0108,2.0074,2.0106,2.0084,2.011,2.0097,2.0079,2.01,2.0065,2.0079,2.0043,2.0111,2.0122,2.0014,2.0013,2.0013,2.0013,2.0012,2.0159,2.0168,2.0165,2.0181,2.0195,2.0173,2.0195,2.0174,2.0154,2.0168,2.0174,2.0173,2.017,2.0172,2.0172,2.0173,2.0173,2.0173,2.0173,2.0241,2.0236,2.0257,2.0258,2.0263,2.0266,2.0251,2.0255,2.0254,2.0237,2.0237,2.0212,2.0121,2.0099,2.0177,2.0177,2.0176,2.0176,2.0175,2.0351,2.0322,2.0354,2.0359,2.0358,2.0373,2.0345,2.0355,2.0355,2.0366,2.0336,2.0272,2.0259,2.025,2.0232,2.0341,2.0341,2.0341,2.0341,2.0417,2.0407,2.0434,2.0443,2.0449,2.0426,2.0462,2.045,2.0433,2.0432,2.0413,2.0386,2.0379,2.0369,2.0359,2.0341,2.0475,2.0475,2.0476,2.0483,2.0472,2.0508,2.049,2.0487,2.0485,2.0518,2.0529,2.0504,2.0481,2.0431,2.0425,2.0382,2.0369,2.0346,2.033,2.0297,0,0]}]]